Location: Worth Mountain WMA
(34.9569°N, 81.4819°W)
Time: 18:26:58
(UTC-04:00)

NOSS 3-2 (A) - Pass Details

Date: 18 August 2017
Orbit: 872 x 1336 km, 63.4° (Epoch: 21 August)

Event Time Altitude Azimuth Distance (km) Brightness Sun altitude
Rises 23:41:10 0° 331° (NNW) 4,035 7.7 -35.8°
Reaches altitude 10° 23:43:51 10° 335° (NNW) 3,132 6.9 -36.1°
Enters shadow 23:50:24 58° 22° (NNE) 1,448 4.3 -36.8°
